sim
Sign-in with your pilot id or email,
or register
Callsign
Passwort

Schedule Details

Flight Number: EWG2682 (1)
Departure: Stuttgart Airport (EDDS) at 15:00
Arrival: Thessaloniki International Airport (LGTS) at 17:25
Route: Eurowings Passenger Schedule. Enter filed route here before submitting Pirep.

Weather Information
Getting current METAR information for EDDS 172220Z VRB02KT 9999 FEW005 16/15 Q1013
Getting current METAR information for LGTS 172220Z VRB03KT 9999 FEW025 21/16 Q1015 NOSIG

Schedule Frequency

Route Map